AirNav   Air Wisconsin pilot careers
 
 1274 users online  

1S4 Seiling Airport
Seiling, Oklahoma, USA

GOING TO SEILING?


FAA INFORMATION EFFECTIVE 13 SEPTEMBER 2018

Location

FAA Identifier: 1S4
Lat/Long: 36-09-19.3000N / 098-56-01.3000W
36-09.321667N / 098-56.021667W
36.1553611 / -98.9336944
(estimated)
Elevation: 1746 ft. / 532.2 m (surveyed)
Variation: 08E (1985)
Time zone: UTC -5 (UTC -6 during Standard Time)
Zip code: 73663

Airport Operations

Airport use: Open to the public
Activation date: 01/1962
Control tower: no
ARTCC: KANSAS CITY CENTER
FSS: MC ALESTER FLIGHT SERVICE STATION
NOTAMs facility: MLC (NOTAM-D service available)
Attendance: UNATNDD
Wind indicator: yes
Segmented circle: no
Lights: ACTIVATE LIRL RY 17/35 - CTAF.

Airport Communications

CTAF: 122.9

Airport Services

Airframe service: NONE
Powerplant service: NONE
Bottled oxygen: NONE
Bulk oxygen: NONE

Runway Information

Runway 17/35

Dimensions: 2435 x 38 ft. / 742 x 12 m
Surface: asphalt, in poor condition
RY ROUGH WITH SEVERE GRASS ENCROACHMENT, CRACKING AND RAVELING.
Weight bearing capacity: 
Single wheel: LESS THAN 4000 LBS
Runway edge lights: low intensity
RUNWAY 17  RUNWAY 35
Latitude: 36-09.521542N36-09.120157N
Longitude: 098-56.017765W098-56.024577W
Elevation: 1746.0 ft.1736.0 ft.
Gradient: 0.1%0.4% UP
Traffic pattern: leftleft
Runway heading: 173 magnetic, 181 true353 magnetic, 001 true
Visual slope indicator: tri-color VASI on left (4.50 degrees glide path)
TRIL OTS INDEFLY.
tri-color VASI on left (6.50 degrees glide path)
TRIL OTS INDEFLY.
Obstructions: none
15 FT ROAD 35 FT FM THLD; +35 FT TREE 100 FT L OF CNTRLN AT THLD.
25 ft. tree, 220 ft. from runway, 30 ft. left of centerline, 1:1 slope to clear
15 FT ROAD 110 FT FM THLD; 20 FT POWERLINE 140 FT FM THLD, 115 FT RIGHT AND LEFT OF CENTERLINE; +15 FT TREE 120 FT RIGHT OF CENTERLINE AT THRESHOLD.

Airport Ownership and Management from official FAA records

Ownership: Publicly-owned
Owner: TOWN OF SEILING
315 N. MAIN ST.
SEILING, OK 73663
Phone 580-922-4460
Manager: GENA CHRISTENSEN
PO BOX 1043
SEILING, OK 73663
Phone 580-922-4460
CITY MANAGER.

Airport Operational Statistics

Aircraft based on the field: 2
Single engine airplanes: 2
    
Aircraft operations: 20/year *
100% transient general aviation
* for 12-month period ending 20 October 2017

Additional Remarks

496 FT AGL UNLGTD TOWER 18 NM S OF ARPT.

Instrument Procedures

There are no published instrument procedures at 1S4.

Some nearby airports with instrument procedures:

KMDF - Mooreland Municipal Airport (23 nm NW)
6K4 - Fairview Municipal Airport (24 nm E)
1O4 - Thomas Municipal Airport (27 nm S)
KJWG - Watonga Regional Airport (30 nm SE)
KWWR - West Woodward Airport (33 nm NW)
 
Loc | Ops | Rwys | IFR | FBO | Links
Com | Nav | Svcs | Stats | Notes


 
Area around 1S4 (Seiling Airport)
 
Road maps at: MapQuest Bing Google
 
Aerial photo
No photo
 
Sectional chart

 
Airport distance calculator
Flying to Seiling Airport? Find the distance to fly.

From to 1S4

Sunrise and sunset
Times for 26-Sep-2018
 Local
(UTC-5)
 Zulu
(UTC)
Morning civil twilight07:0212:02
Sunrise07:2812:28
Sunset19:2600:26
Evening civil twilight19:5200:52

Current date and time
Zulu (UTC)  26-Sep-2018 13:39:18
Local (UTC-5)  26-Sep-2018 08:39:18
 
METAR
KJWG 
30nm SE 
261315Z AUTO 35007KT 10SM OVC120 14/11 A3033 RMK AO2 T01400112
KCLK 
37nm S 
261315Z AUTO 03006KT 10SM SCT050 SCT075 OVC110 12/09 A3033 RMK AO2
KWWR 
39nm NW 
261315Z AUTO 10005KT 10SM OVC120 12/06 A3036 RMK AO2
KOJA 
39nm S 
261315Z AUTO 00000KT 10SM -RA SCT075 OVC100 12/11 A3032 RMK AO2
KAVK 
39nm N 
261315Z AUTO 00000KT 9SM CLR 13/11 A3033 RMK AO2
KGAG 
41nm W 
261253Z AUTO 11005KT 10SM OVC110 12/08 A3032 RMK AO2 SLP258 T01220083
KELK 
49nm SW 
261315Z AUTO 06005KT 10SM -RA BKN080 OVC110 12/10 A3031 RMK AO2 P0001 T01220100
TAF
KWWR 
39nm NW 
261125Z 2612/2712 06008KT P6SM BKN100 OVC250 FM262100 12006KT P6SM SCT100
NOTAMs
Click for the latest NOTAMs
NOTAMs are issued by the DoD/FAA and will open in a separate window not controlled by AirNav.

 

 
 

Would you like to see your business listed on this page?

 If your business provides an interesting product or service to pilots, flight crews, aircraft, or users of the Seiling Airport, you should consider listing it here.  To start the listing process, click on the button below
 
Add a business
 

Other Pages about Seiling Airport

Update a link
 
Copyright © AirNav, LLC. All rights reserved. Privacy Policy  Contact